Flag for U.S.A. Weather past 2 weeks in Wichita Falls, Texas, U.S.A.

Now
73 °F

Clear.


Feels Like: 71 °F
Forecast: 71 / 89 °F
Wind: N/A

Location: Wichita Falls - Sheppard Air Force Base

Current Time: Sep 18, 2014 at 3:13:59 AM

Latest Report: Sep 18, 2014 at 1:52 AM


Visibility: 10 mi

Pressure: 29.86 "Hg

Humidity: 88%

Dew point: 69 °F

Location of Wichita FallsLocation

Historic Weather in Wichita Falls — Graph

°F

Wichita Falls temperature yesterday

Maximum temperature yesterday: 91 °F (at 3:52 PM)
Minimum temperature yesterday: 71 °F (at 5:52 AM)
Average temperature yesterday: 79 °F

Past Weeks' High & Low Weather Summary

 TemperatureHumidityPressure
High100 °F (Sep 9, 3:52 PM)97% (Sep 8, 7:52 AM)30.34 "Hg (Sep 8, 7:52 AM)
Low52 °F (Sep 13, 7:52 AM)28% (Sep 4, 2:52 PM)29.67 "Hg (Sep 10, 1:52 AM)
Average77 °F67%30.00 "Hg
* Reported Sep 3 1:52 AM — Sep 18 1:52 AM, Wichita Falls, Weather by CustomWeather, © 2014

Note: Actual official high and low records may vary slightly from our data, if they occured in-between our weather recording intervals... More about our weather records

Advertising

Wichita Falls weather history for previous 24 hours

 ConditionsComfort  
Time TempWeatherWind HumidityBarometerVisibility
1:52 AM
Sep 18
73 °FClear.N/A88%29.86 "Hg10 mi
12:52 AM73 °FClear.N/A90%29.86 "Hg10 mi
11:52 PM
Sep 17
74 °FClear.6 mph91%29.85 "Hg10 mi
10:52 PM76 °FClear.7 mph82%29.85 "Hg10 mi
9:52 PM75 °FClear.6 mph88%29.86 "Hg10 mi
8:52 PM77 °FPassing clouds.7 mph82%29.85 "Hg10 mi
7:52 PM77 °FPartly sunny.10 mph79%29.83 "Hg10 mi
6:52 PM76 °FMostly cloudy.15 mph64%29.83 "Hg10 mi
5:52 PM86 °FThunderstorms. Partly sunny.15 mph59%29.80 "Hg10 mi
4:52 PM91 °FPassing clouds.7 mph44%29.80 "Hg10 mi
3:52 PM91 °FScattered clouds.No wind47%29.82 "Hg10 mi
2:52 PM90 °FScattered clouds.3 mph48%29.84 "Hg10 mi
1:52 PM87 °FScattered clouds.5 mph55%29.87 "Hg10 mi
12:52 PM86 °FScattered clouds.7 mph57%29.90 "Hg10 mi
11:52 AM87 °FSunny.8 mph55%29.91 "Hg10 mi
10:52 AM84 °FPartly sunny.6 mph63%29.92 "Hg10 mi
9:52 AM80 °FSunny.5 mph71%29.93 "Hg10 mi
8:52 AM77 °FPartly sunny.9 mph79%29.92 "Hg10 mi
7:52 AM75 °FClear.7 mph82%29.92 "Hg9 mi
6:52 AM72 °FPassing clouds.6 mph87%29.92 "Hg9 mi
5:52 AM71 °FClear.7 mph90%29.91 "Hg8 mi
4:52 AM72 °FClear.7 mph87%29.92 "Hg8 mi
3:52 AM73 °FPassing clouds.7 mph84%29.93 "Hg8 mi
Weather by CustomWeather, © 2014

See weather overviewHow to use our weather pages